THY7WT LTFM-LFPG

Flight info

Callsign THY7WT
Flight time 3h 18m
Altitude 40000
Route TUDBU1E/36 TUDBU Q26 ETUBA DCT ELDET DCT BACAM DCT SODGO DCT DIDIX DCT INVED DCT STEIN DCT RENKA L610 STAUB/N0415F240 L610 MAMOR DCT ASPAT DCT VIBOM DCT BETEX DCT IDOSA DCT TOLVU/N0483F410 DCT RAPOR DCT VEDUS VEDUS9E
Aircraft A359/H-SDE2E3GHIJ3J4J5LM1ORWXY/LB1D1

Departure

Time 2026-05-04 14:51
Airport İstanbul Airport (LTFM)

Arrival

Time 2026-05-04 18:09
Airport Charles de Gaulle International Airport (LFPG)
Time Latitude Longitude Altitude Speed Heading
2026-05-04 14:16 41.26738 28.74364 340 ft 0 kts 269°
2026-05-04 14:25 41.26738 28.74365 340 ft 0 kts 269°
2026-05-04 14:32 41.26739 28.74365 340 ft 0 kts 269°
2026-05-04 14:32 41.26738 28.74365 340 ft 0 kts 269°
2026-05-04 14:33 41.26739 28.74365 340 ft 0 kts 269°
2026-05-04 14:33 41.26738 28.74365 340 ft 0 kts 269°
2026-05-04 14:33 41.26739 28.74365 340 ft 0 kts 269°
2026-05-04 14:34 41.26738 28.74365 340 ft 0 kts 269°
2026-05-04 14:34 41.26739 28.74365 340 ft 0 kts 269°
2026-05-04 14:34 41.26738 28.74365 340 ft 0 kts 269°
2026-05-04 14:34 41.26739 28.74365 340 ft 0 kts 269°
2026-05-04 14:35 41.26738 28.74365 340 ft 0 kts 269°
2026-05-04 14:35 41.26739 28.74365 340 ft 0 kts 269°
2026-05-04 14:35 41.26738 28.74365 340 ft 0 kts 269°
2026-05-04 14:36 41.26739 28.74365 340 ft 0 kts 269°
2026-05-04 14:38 41.26738 28.74357 340 ft 0 kts 269°
2026-05-04 14:38 41.26739 28.74386 335 ft 4 kts 269°
2026-05-04 14:39 41.26739 28.74416 335 ft 4 kts 270°
2026-05-04 14:39 41.26737 28.74446 335 ft 4 kts 302°
2026-05-04 14:39 41.26724 28.74464 335 ft 4 kts 343°
2026-05-04 14:40 41.26680 28.74470 335 ft 0 kts 359°
2026-05-04 14:40 41.26677 28.74470 335 ft 1 kts 359°
2026-05-04 14:40 41.26673 28.74470 335 ft 1 kts 359°
2026-05-04 14:40 41.26669 28.74470 337 ft 1 kts 359°
2026-05-04 14:41 41.26668 28.74470 337 ft 0 kts 359°
2026-05-04 14:44 41.26675 28.74470 335 ft 5 kts 359°
2026-05-04 14:45 41.26743 28.74468 335 ft 13 kts 359°
2026-05-04 14:45 41.26842 28.74465 337 ft 15 kts 359°
2026-05-04 14:45 41.26945 28.74465 338 ft 10 kts
2026-05-04 14:45 41.26971 28.74493 335 ft 2 kts 85°
2026-05-04 14:46 41.26973 28.74535 336 ft 7 kts 87°
2026-05-04 14:46 41.26973 28.74621 336 ft 14 kts 89°
2026-05-04 14:46 41.26976 28.74789 338 ft 19 kts 88°
2026-05-04 14:46 41.26979 28.74975 340 ft 22 kts 89°
2026-05-04 14:47 41.26981 28.75183 337 ft 23 kts 89°
2026-05-04 14:47 41.26983 28.75282 337 ft 0 kts 89°
2026-05-04 14:47 41.26983 28.75305 337 ft 7 kts 89°
2026-05-04 14:47 41.26967 28.75369 336 ft 4 kts 150°
2026-05-04 14:48 41.26916 28.75379 337 ft 11 kts 180°
2026-05-04 14:48 41.26809 28.75378 338 ft 20 kts 180°
2026-05-04 14:48 41.26653 28.75381 339 ft 24 kts 179°
2026-05-04 14:48 41.26485 28.75386 339 ft 23 kts 179°
2026-05-04 14:49 41.26344 28.75389 336 ft 1 kts 179°
2026-05-04 14:49 41.26340 28.75390 336 ft 2 kts 179°
2026-05-04 14:49 41.26310 28.75390 335 ft 7 kts 179°
2026-05-04 14:49 41.26251 28.75427 340 ft 7 kts 127°
2026-05-04 14:50 41.26248 28.75480 340 ft 8 kts 90°
2026-05-04 14:50 41.26250 28.75607 340 ft 18 kts 80°
2026-05-04 14:50 41.26307 28.75665 337 ft 15 kts
2026-05-04 14:50 41.26551 28.75663 336 ft 65 kts 360°
2026-05-04 14:51 41.27229 28.75650 337 ft 128 kts 359°
2026-05-04 14:51 41.28306 28.75634 408 ft 175 kts 355°
2026-05-04 14:51 41.29523 28.75602 1182 ft 171 kts 358°
2026-05-04 14:51 41.30643 28.76099 1944 ft 178 kts 30°
2026-05-04 14:52 41.31704 28.77112 2287 ft 196 kts 34°
2026-05-04 14:52 41.32862 28.78191 2700 ft 212 kts 31°
2026-05-04 14:52 41.34173 28.79299 3050 ft 232 kts 28°
2026-05-04 14:52 41.35581 28.80414 3738 ft 237 kts 27°
2026-05-04 14:53 41.37011 28.81512 4501 ft 238 kts 26°
2026-05-04 14:53 41.38548 28.82332 5227 ft 239 kts
2026-05-04 14:53 41.40197 28.82380 6032 ft 238 kts 354°
2026-05-04 14:53 41.41855 28.82168 6789 ft 240 kts 353°
2026-05-04 14:54 41.43513 28.81884 7524 ft 242 kts 349°
2026-05-04 14:54 41.45111 28.81136 8257 ft 248 kts 335°
2026-05-04 14:54 41.46475 28.79670 8976 ft 259 kts 316°
2026-05-04 14:54 41.47567 28.77714 9658 ft 267 kts 311°
2026-05-04 14:55 41.48610 28.75628 10236 ft 275 kts 311°
2026-05-04 14:55 41.49703 28.73437 10508 ft 292 kts 311°
2026-05-04 14:55 41.50863 28.71113 10755 ft 310 kts 310°
2026-05-04 14:55 41.52084 28.68661 11053 ft 323 kts 310°
2026-05-04 14:56 41.53338 28.66132 11532 ft 330 kts 310°
2026-05-04 14:56 41.54613 28.63556 12053 ft 335 kts 310°
2026-05-04 14:56 41.55908 28.60943 12565 ft 340 kts 310°
2026-05-04 14:56 41.57222 28.58292 13080 ft 345 kts 310°
2026-05-04 14:57 41.58552 28.55608 13613 ft 349 kts 310°
2026-05-04 14:57 41.59901 28.52885 14061 ft 354 kts 309°
2026-05-04 14:57 41.61265 28.50128 14522 ft 357 kts 309°
2026-05-04 14:57 41.62639 28.47348 15002 ft 360 kts 309°
2026-05-04 14:58 41.64022 28.44547 15491 ft 363 kts 309°
2026-05-04 14:58 41.65422 28.41711 15969 ft 366 kts 309°
2026-05-04 14:58 41.66828 28.38860 16451 ft 369 kts 309°
2026-05-04 14:58 41.67765 28.36957 16754 ft 371 kts 309°
2026-05-04 14:59 41.69676 28.33076 17381 ft 375 kts 308°
2026-05-04 14:59 41.71117 28.30145 17836 ft 379 kts 308°
2026-05-04 14:59 41.74035 28.24204 18687 ft 385 kts 308°
2026-05-04 15:00 41.75488 28.21240 19050 ft 387 kts 308°
2026-05-04 15:00 41.76990 28.18174 19453 ft 390 kts 308°
2026-05-04 15:00 41.78464 28.15161 19848 ft 393 kts 309°
2026-05-04 15:01 41.81473 28.09003 20622 ft 397 kts 309°
2026-05-04 15:01 41.82992 28.05890 21002 ft 400 kts 309°
2026-05-04 15:01 41.84517 28.02762 21382 ft 402 kts 309°
2026-05-04 15:01 41.86051 27.99612 21735 ft 405 kts 309°
2026-05-04 15:02 41.87594 27.96441 22120 ft 407 kts 309°
2026-05-04 15:02 41.88638 27.94291 22364 ft 409 kts 309°
2026-05-04 15:02 41.90196 27.91084 22722 ft 411 kts 309°
2026-05-04 15:02 41.91762 27.87857 23092 ft 413 kts 309°
2026-05-04 15:03 41.93332 27.84616 23459 ft 415 kts 309°
2026-05-04 15:03 41.94912 27.81352 23767 ft 418 kts 308°
2026-05-04 15:03 41.96559 27.78134 24011 ft 417 kts 313°
2026-05-04 15:03 41.98442 27.75189 24318 ft 415 kts 318°
2026-05-04 15:04 42.00425 27.72371 24605 ft 416 kts 319°
2026-05-04 15:04 42.02461 27.69601 24914 ft 417 kts 320°
2026-05-04 15:04 42.04522 27.66841 25212 ft 419 kts 320°
2026-05-04 15:04 42.06589 27.64070 25507 ft 421 kts 320°
2026-05-04 15:05 42.08662 27.61273 25828 ft 423 kts 320°
2026-05-04 15:05 42.10737 27.58452 26133 ft 425 kts 319°
2026-05-04 15:05 42.12786 27.55648 26459 ft 427 kts 319°
2026-05-04 15:05 42.14874 27.52777 26781 ft 429 kts 319°
2026-05-04 15:06 42.16967 27.49894 27135 ft 432 kts 319°
2026-05-04 15:06 42.19071 27.46991 27469 ft 434 kts 319°
2026-05-04 15:06 42.21188 27.44067 27846 ft 437 kts 319°
2026-05-04 15:07 42.25453 27.38168 28619 ft 442 kts 318°
2026-05-04 15:07 42.27604 27.35190 28991 ft 444 kts 318°
2026-05-04 15:07 42.29770 27.32190 29379 ft 447 kts 318°
2026-05-04 15:07 42.31948 27.29169 29755 ft 450 kts 318°
2026-05-04 15:08 42.34140 27.26125 30142 ft 453 kts 318°
2026-05-04 15:08 42.36345 27.23061 30494 ft 456 kts 317°
2026-05-04 15:08 42.38558 27.19981 30817 ft 459 kts 317°
2026-05-04 15:08 42.40787 27.16877 31174 ft 461 kts 317°
2026-05-04 15:09 42.43028 27.13751 31545 ft 463 kts 317°
2026-05-04 15:09 42.45272 27.10618 31895 ft 465 kts 317°
2026-05-04 15:09 42.47528 27.07465 32245 ft 467 kts 317°
2026-05-04 15:10 42.52064 27.01113 32927 ft 471 kts 317°
2026-05-04 15:10 42.54342 26.97918 33221 ft 473 kts 317°
2026-05-04 15:10 42.58940 26.91459 33839 ft 478 kts 316°
2026-05-04 15:11 42.61255 26.88202 34112 ft 480 kts 316°
2026-05-04 15:11 42.63582 26.84925 34343 ft 483 kts 316°
2026-05-04 15:11 42.65913 26.81637 34600 ft 484 kts 316°
2026-05-04 15:11 42.68249 26.78338 34959 ft 483 kts 316°
2026-05-04 15:12 42.70576 26.75048 35337 ft 482 kts 316°
2026-05-04 15:12 42.72898 26.71762 35703 ft 482 kts 316°
2026-05-04 15:12 42.75216 26.68477 36032 ft 482 kts 316°
2026-05-04 15:12 42.77535 26.65186 36381 ft 481 kts 316°
2026-05-04 15:13 42.79849 26.61899 36729 ft 481 kts 316°
2026-05-04 15:13 42.82027 26.58433 37061 ft 482 kts 309°
2026-05-04 15:13 42.84069 26.54813 37414 ft 481 kts 309°
2026-05-04 15:13 42.86072 26.51166 37783 ft 480 kts 309°
2026-05-04 15:14 42.88029 26.47559 38156 ft 478 kts 308°
2026-05-04 15:14 42.90017 26.43866 38548 ft 476 kts 308°
2026-05-04 15:14 42.91946 26.40275 38859 ft 475 kts 308°
2026-05-04 15:14 42.93897 26.36643 39087 ft 474 kts 308°
2026-05-04 15:15 42.95847 26.33017 39303 ft 474 kts 308°
2026-05-04 15:15 42.97796 26.29392 39504 ft 474 kts 308°
2026-05-04 15:15 42.99746 26.25765 39715 ft 474 kts 308°
2026-05-04 15:16 43.03648 26.18495 40024 ft 476 kts 308°
2026-05-04 15:16 43.05603 26.14847 40033 ft 476 kts 308°
2026-05-04 15:17 43.11455 26.03893 40041 ft 475 kts 307°
2026-05-04 15:17 43.17294 25.92927 40044 ft 475 kts 307°
2026-05-04 15:18 43.21185 25.85596 40045 ft 475 kts 307°
2026-05-04 15:19 43.27010 25.74587 40044 ft 475 kts 307°
2026-05-04 15:19 43.32827 25.63549 40044 ft 476 kts 307°
2026-05-04 15:20 43.36704 25.56171 40046 ft 476 kts 307°
2026-05-04 15:20 43.40578 25.48783 40049 ft 476 kts 307°
2026-05-04 15:21 43.44447 25.41383 40055 ft 477 kts 307°
2026-05-04 15:22 43.50246 25.30257 40052 ft 477 kts 307°
2026-05-04 15:22 43.56038 25.19101 40058 ft 477 kts 307°
2026-05-04 15:23 43.59891 25.11659 40063 ft 477 kts 307°
2026-05-04 15:23 43.63713 25.04257 40063 ft 477 kts 307°
2026-05-04 15:24 43.71391 24.89326 40069 ft 476 kts 307°
2026-05-04 15:25 43.75217 24.81860 40069 ft 476 kts 306°
2026-05-04 15:26 43.80953 24.70630 40060 ft 476 kts 306°
2026-05-04 15:26 43.86670 24.59391 40062 ft 475 kts 306°
2026-05-04 15:27 43.92366 24.48154 40075 ft 474 kts 306°
2026-05-04 15:28 43.98041 24.36913 40062 ft 474 kts 306°
2026-05-04 15:29 44.03699 24.25664 40057 ft 473 kts 306°
2026-05-04 15:30 44.16836 23.99375 40029 ft 473 kts 306°
2026-05-04 15:31 44.22454 23.88061 40025 ft 473 kts 306°
2026-05-04 15:32 44.32336 23.69836 40024 ft 472 kts 313°
2026-05-04 15:34 44.43372 23.52814 40024 ft 473 kts 313°
2026-05-04 15:34 44.49979 23.42569 40028 ft 473 kts 313°
2026-05-04 15:35 44.56570 23.32284 40026 ft 472 kts 313°
2026-05-04 15:36 44.63142 23.21995 40020 ft 472 kts 313°
2026-05-04 15:36 44.67523 23.15116 40019 ft 472 kts 313°
2026-05-04 15:37 44.71894 23.08238 40024 ft 472 kts 313°
2026-05-04 15:37 44.76264 23.01342 40021 ft 472 kts 313°
2026-05-04 15:38 44.80623 22.94447 40018 ft 472 kts 313°
2026-05-04 15:38 44.84981 22.87536 40026 ft 472 kts 313°
2026-05-04 15:39 44.89266 22.80623 40029 ft 472 kts 311°
2026-05-04 15:40 44.95437 22.69761 40042 ft 472 kts 310°
2026-05-04 15:40 44.99532 22.62518 40048 ft 472 kts 310°
2026-05-04 15:41 45.03656 22.55288 40056 ft 472 kts 310°
2026-05-04 15:41 45.07779 22.48070 40064 ft 471 kts 310°
2026-05-04 15:42 45.11893 22.40850 40066 ft 471 kts 310°
2026-05-04 15:42 45.15999 22.33622 40072 ft 471 kts 310°
2026-05-04 15:43 45.20098 22.26384 40073 ft 470 kts 310°
2026-05-04 15:43 45.24190 22.19143 40078 ft 470 kts 310°
2026-05-04 15:44 45.28274 22.11896 40076 ft 470 kts 310°
2026-05-04 15:44 45.32354 22.04638 40079 ft 470 kts 310°
2026-05-04 15:45 45.36432 21.97367 40078 ft 470 kts 310°
2026-05-04 15:45 45.40499 21.90095 40082 ft 470 kts 309°
2026-05-04 15:46 45.44560 21.82813 40081 ft 469 kts 309°
2026-05-04 15:46 45.48611 21.75532 40076 ft 469 kts 309°
2026-05-04 15:47 45.52658 21.68241 40078 ft 469 kts 309°
2026-05-04 15:47 45.56703 21.60933 40076 ft 469 kts 309°
2026-05-04 15:48 45.60736 21.53629 40077 ft 468 kts 309°
2026-05-04 15:48 45.66779 21.42648 40078 ft 468 kts 309°
2026-05-04 15:49 45.70455 21.34961 40073 ft 469 kts 302°
2026-05-04 15:49 45.73724 21.26890 40071 ft 469 kts 301°
2026-05-04 15:50 45.76369 21.20121 40086 ft 469 kts 300°
2026-05-04 15:50 45.79544 21.11966 40080 ft 469 kts 300°
2026-05-04 15:51 45.82733 21.03802 40071 ft 468 kts 300°
2026-05-04 15:51 45.85914 20.95655 40085 ft 468 kts 300°
2026-05-04 15:52 45.89091 20.87499 40089 ft 468 kts 300°
2026-05-04 15:52 45.92262 20.79333 40089 ft 468 kts 300°
2026-05-04 15:53 45.95425 20.71159 40085 ft 468 kts 300°
2026-05-04 15:53 45.98586 20.62967 40091 ft 468 kts 300°
2026-05-04 15:54 46.01736 20.54780 40085 ft 468 kts 300°
2026-05-04 15:54 46.04882 20.46577 40086 ft 468 kts 300°
2026-05-04 15:55 46.08023 20.38366 40083 ft 468 kts 300°
2026-05-04 15:55 46.11133 20.30208 40085 ft 468 kts 300°
2026-05-04 15:56 46.14256 20.21992 40082 ft 467 kts 300°
2026-05-04 15:56 46.17374 20.13766 40080 ft 467 kts 300°
2026-05-04 15:57 46.20482 20.05543 40078 ft 466 kts 300°
2026-05-04 15:57 46.23580 19.97320 40075 ft 466 kts 300°
2026-05-04 15:58 46.26669 19.89092 40075 ft 465 kts 300°
2026-05-04 15:58 46.29746 19.80873 40074 ft 465 kts 299°
2026-05-04 15:59 46.32813 19.72657 40074 ft 464 kts 299°
2026-05-04 15:59 46.35878 19.64425 40069 ft 464 kts 299°
2026-05-04 16:00 46.38932 19.56191 40069 ft 464 kts 299°
2026-05-04 16:00 46.41976 19.47963 40067 ft 463 kts 299°
2026-05-04 16:01 46.45012 19.39730 40067 ft 463 kts 299°
2026-05-04 16:01 46.48038 19.31496 40060 ft 463 kts 298°
2026-05-04 16:02 46.51059 19.23253 40062 ft 462 kts 298°
2026-05-04 16:03 46.55579 19.10876 40059 ft 462 kts 298°
2026-05-04 16:03 46.58582 19.02619 40058 ft 462 kts 298°
2026-05-04 16:04 46.61580 18.94350 40055 ft 462 kts 298°
2026-05-04 16:04 46.66070 18.81919 40053 ft 462 kts 298°
2026-05-04 16:05 46.69052 18.73630 40051 ft 462 kts 298°
2026-05-04 16:06 46.73520 18.61162 40047 ft 463 kts 298°
2026-05-04 16:07 46.79459 18.44501 40044 ft 463 kts 298°
2026-05-04 16:08 46.85353 18.27858 40039 ft 463 kts 298°
2026-05-04 16:09 46.92719 18.06914 40037 ft 463 kts 298°
2026-05-04 16:10 46.98585 17.90115 40032 ft 463 kts 298°
2026-05-04 16:11 47.04425 17.73281 40030 ft 463 kts 297°
2026-05-04 16:12 47.13116 17.48029 40006 ft 462 kts 297°
2026-05-04 16:13 47.18872 17.31173 40000 ft 461 kts 297°
2026-05-04 16:14 47.24599 17.14287 39999 ft 461 kts 297°
2026-05-04 16:16 47.31696 16.93214 39995 ft 460 kts 297°
2026-05-04 16:17 47.38755 16.72079 39984 ft 459 kts 296°
2026-05-04 16:18 47.44442 16.55208 39985 ft 458 kts 299°
2026-05-04 16:19 47.52599 16.35019 39978 ft 457 kts 300°
2026-05-04 16:20 47.60573 16.14659 39980 ft 457 kts 300°
2026-05-04 16:22 47.68490 15.94246 39976 ft 456 kts 299°
2026-05-04 16:23 47.77924 15.69726 39970 ft 457 kts 299°
2026-05-04 16:25 47.87329 15.45055 39954 ft 457 kts 299°
2026-05-04 16:26 47.98252 15.16116 39935 ft 459 kts 298°
2026-05-04 16:28 48.06038 14.95291 39923 ft 458 kts 298°
2026-05-04 16:29 48.16852 14.66092 39909 ft 458 kts 298°
2026-05-04 16:31 48.24526 14.45176 39892 ft 458 kts 297°
2026-05-04 16:32 48.33695 14.19962 39886 ft 458 kts 297°
2026-05-04 16:33 48.39778 14.03099 39894 ft 458 kts 297°
2026-05-04 16:34 48.44322 13.90435 39902 ft 459 kts 297°
2026-05-04 16:35 48.53354 13.65072 39907 ft 459 kts 297°
2026-05-04 16:36 48.57859 13.52256 39905 ft 458 kts 295°
2026-05-04 16:37 48.61332 13.38888 39909 ft 457 kts 289°
2026-05-04 16:38 48.65645 13.20804 39910 ft 457 kts 289°
2026-05-04 16:39 48.70658 12.99703 39914 ft 457 kts 289°
2026-05-04 16:40 48.74911 12.81569 39917 ft 457 kts 288°
2026-05-04 16:41 48.80196 12.58858 39919 ft 457 kts 288°
2026-05-04 16:43 48.85432 12.36087 39922 ft 457 kts 288°
2026-05-04 16:43 48.88552 12.22406 39926 ft 457 kts 288°
2026-05-04 16:45 48.94448 11.94851 39938 ft 457 kts 286°
2026-05-04 16:46 48.99305 11.71822 39945 ft 457 kts 286°
2026-05-04 16:47 49.03162 11.53371 39948 ft 457 kts 286°
2026-05-04 16:48 49.06988 11.34892 39949 ft 457 kts 285°
2026-05-04 16:49 49.10769 11.16456 39948 ft 457 kts 285°
2026-05-04 16:50 49.14541 10.97899 39972 ft 457 kts 285°
2026-05-04 16:51 49.16274 10.89310 39972 ft 458 kts 285°
2026-05-04 16:52 49.20003 10.70699 39979 ft 458 kts 285°
2026-05-04 16:53 49.22537 10.56627 39979 ft 458 kts 283°
2026-05-04 16:54 49.25823 10.37789 39984 ft 458 kts 283°
2026-05-04 16:55 49.30781 10.09476 39970 ft 458 kts 283°
2026-05-04 16:56 49.34853 9.85863 39968 ft 458 kts 282°
2026-05-04 16:57 49.37274 9.71670 39969 ft 459 kts 282°
2026-05-04 16:58 49.40478 9.52713 39970 ft 459 kts 282°
2026-05-04 17:00 49.45229 9.24203 39982 ft 459 kts 282°
2026-05-04 17:01 49.48860 9.00329 39976 ft 458 kts 279°
2026-05-04 17:02 49.51445 8.81116 39975 ft 458 kts 279°
2026-05-04 17:03 49.53405 8.66779 39968 ft 459 kts 279°
2026-05-04 17:03 49.55360 8.52367 39965 ft 459 kts 279°
2026-05-04 17:04 49.57937 8.33116 39974 ft 459 kts 279°
2026-05-04 17:05 49.60482 8.13840 39976 ft 459 kts 278°
2026-05-04 17:06 49.62373 7.99354 39982 ft 459 kts 278°
2026-05-04 17:07 49.64034 7.86496 39975 ft 460 kts 278°
2026-05-04 17:07 49.65483 7.75184 39971 ft 460 kts 278°
2026-05-04 17:08 49.67327 7.60653 39973 ft 460 kts 278°
2026-05-04 17:09 49.68548 7.50946 39972 ft 460 kts 278°
2026-05-04 17:09 49.69759 7.41246 39985 ft 460 kts 278°
2026-05-04 17:10 49.72750 7.16986 39988 ft 460 kts 278°
2026-05-04 17:11 49.73933 7.07274 39984 ft 459 kts 277°
2026-05-04 17:12 49.75688 6.92726 39973 ft 459 kts 277°
2026-05-04 17:13 49.78563 6.68518 39973 ft 459 kts 277°
2026-05-04 17:14 49.80828 6.49097 39966 ft 458 kts 276°
2026-05-04 17:14 49.81038 6.39331 39981 ft 452 kts 261°
2026-05-04 17:15 49.80559 6.34534 39982 ft 451 kts 258°
2026-05-04 17:16 49.78046 6.15528 39990 ft 451 kts 256°
2026-05-04 17:17 49.75478 5.96631 39990 ft 451 kts 256°
2026-05-04 17:18 49.72125 5.78005 39979 ft 450 kts 249°
2026-05-04 17:19 49.67864 5.59812 39975 ft 450 kts 248°
2026-05-04 17:20 49.63596 5.41682 38732 ft 452 kts 248°
2026-05-04 17:20 49.61455 5.32495 37011 ft 457 kts 249°
2026-05-04 17:20 49.60452 5.27843 36211 ft 458 kts 249°
2026-05-04 17:21 49.59221 5.18172 34617 ft 466 kts 264°
2026-05-04 17:21 49.59252 5.08165 32997 ft 466 kts 266°
2026-05-04 17:22 49.59299 5.03176 32224 ft 465 kts 266°
2026-05-04 17:22 49.59341 4.98214 31529 ft 462 kts 265°
2026-05-04 17:23 49.59448 4.83606 29627 ft 451 kts 265°
2026-05-04 17:23 49.59476 4.78734 28972 ft 447 kts 265°
2026-05-04 17:23 49.59529 4.69312 27727 ft 439 kts 265°
2026-05-04 17:24 49.59549 4.64632 27125 ft 434 kts 266°
2026-05-04 17:24 49.59603 4.50963 25794 ft 414 kts 266°
2026-05-04 17:25 49.59617 4.46566 25451 ft 407 kts 267°
2026-05-04 17:25 49.59637 4.37973 24770 ft 398 kts 267°
2026-05-04 17:26 49.59652 4.29454 24096 ft 397 kts 268°
2026-05-04 17:26 49.59665 4.16765 23056 ft 393 kts 268°
2026-05-04 17:27 49.59613 4.09790 22513 ft 390 kts 264°
2026-05-04 17:27 49.57768 4.02048 21867 ft 384 kts 237°
2026-05-04 17:28 49.54864 3.95222 21220 ft 382 kts 236°
2026-05-04 17:29 49.50526 3.85009 20253 ft 378 kts 237°
2026-05-04 17:29 49.46861 3.74418 19321 ft 375 kts 254°
2026-05-04 17:30 49.44932 3.62813 18379 ft 372 kts 255°
2026-05-04 17:31 49.43644 3.55137 17721 ft 370 kts 255°
2026-05-04 17:31 49.41579 3.43791 16802 ft 366 kts 249°
2026-05-04 17:32 49.39674 3.36572 16344 ft 364 kts 247°
2026-05-04 17:33 49.36785 3.25812 15592 ft 363 kts 247°
2026-05-04 17:33 49.35825 3.22244 15344 ft 362 kts 247°
2026-05-04 17:34 49.32946 3.11580 14612 ft 359 kts 247°
2026-05-04 17:34 49.31989 3.08048 14369 ft 358 kts 247°
2026-05-04 17:35 49.29127 2.97510 13648 ft 356 kts 247°
2026-05-04 17:35 49.27226 2.90535 13118 ft 354 kts 247°
2026-05-04 17:35 49.26280 2.87070 12855 ft 352 kts 247°
2026-05-04 17:36 49.25335 2.83615 12602 ft 351 kts 247°
2026-05-04 17:36 49.24623 2.81016 12399 ft 350 kts 247°
2026-05-04 17:36 49.23684 2.77592 12140 ft 349 kts 247°
2026-05-04 17:36 49.22751 2.74198 11975 ft 340 kts 247°
2026-05-04 17:37 49.21868 2.70987 11864 ft 325 kts 247°
2026-05-04 17:37 49.21010 2.67873 11753 ft 311 kts 247°
2026-05-04 17:37 49.20185 2.64880 11620 ft 299 kts 247°
2026-05-04 17:37 49.19385 2.61984 11407 ft 294 kts 247°
2026-05-04 17:38 49.18596 2.59108 11085 ft 293 kts 248°
2026-05-04 17:38 49.18083 2.56111 10748 ft 292 kts 264°
2026-05-04 17:38 49.17960 2.52983 10320 ft 297 kts 269°
2026-05-04 17:38 49.17911 2.49819 9888 ft 298 kts 269°
2026-05-04 17:39 49.17797 2.43479 8970 ft 298 kts 268°
2026-05-04 17:39 49.17732 2.40329 8588 ft 295 kts 268°
2026-05-04 17:39 49.17666 2.37216 8173 ft 292 kts 268°
2026-05-04 17:40 49.17611 2.34135 7877 ft 287 kts 269°
2026-05-04 17:40 49.17568 2.31089 7629 ft 286 kts 269°
2026-05-04 17:40 49.17524 2.28057 7382 ft 285 kts 269°
2026-05-04 17:40 49.17478 2.25044 7135 ft 284 kts 269°
2026-05-04 17:41 49.17430 2.22023 6888 ft 283 kts 269°
2026-05-04 17:41 49.17381 2.19027 6647 ft 282 kts 269°
2026-05-04 17:41 49.17331 2.16037 6346 ft 281 kts 269°
2026-05-04 17:41 49.17280 2.13051 5959 ft 280 kts 269°
2026-05-04 17:42 49.17086 2.10116 5634 ft 278 kts 256°
2026-05-04 17:42 49.16368 2.07388 5352 ft 277 kts 243°
2026-05-04 17:42 49.15472 2.04783 5082 ft 277 kts 242°
2026-05-04 17:42 49.14558 2.02216 4805 ft 275 kts 242°
2026-05-04 17:43 49.13647 1.99659 4569 ft 273 kts 242°
2026-05-04 17:43 49.12660 1.97190 4305 ft 274 kts 232°
2026-05-04 17:43 49.11256 1.95251 4020 ft 274 kts 210°
2026-05-04 17:43 49.09462 1.94373 3739 ft 271 kts 182°
2026-05-04 17:44 49.07635 1.94888 3420 ft 268 kts 153°
2026-05-04 17:44 49.06234 1.96662 3047 ft 262 kts 122°
2026-05-04 17:44 49.05453 1.99112 2826 ft 251 kts 110°
2026-05-04 17:44 49.04805 2.01517 2687 ft 240 kts 111°
2026-05-04 17:45 49.04146 2.03802 2511 ft 231 kts 113°
2026-05-04 17:45 49.03480 2.05973 2241 ft 228 kts 114°
2026-05-04 17:45 49.02789 2.08144 2039 ft 219 kts 115°
2026-05-04 17:45 49.02144 2.10123 2016 ft 206 kts 115°
2026-05-04 17:46 49.01504 2.12065 2007 ft 205 kts 115°
2026-05-04 17:46 49.00863 2.13997 2001 ft 204 kts 116°
2026-05-04 17:46 49.00289 2.15972 1995 ft 205 kts 106°
2026-05-04 17:46 49.00170 2.18115 2001 ft 203 kts 86°
2026-05-04 17:47 49.00290 2.20255 2003 ft 203 kts 83°
2026-05-04 17:47 49.00428 2.22404 1997 ft 204 kts 84°
2026-05-04 17:47 49.00449 2.24534 2010 ft 195 kts 90°
2026-05-04 17:47 49.00403 2.26461 2016 ft 167 kts 91°
2026-05-04 17:48 49.00357 2.28077 2018 ft 141 kts 91°
2026-05-04 17:48 49.00317 2.29501 2022 ft 133 kts 91°
2026-05-04 17:48 49.00278 2.30913 2012 ft 134 kts 91°
2026-05-04 17:48 49.00238 2.32334 1998 ft 135 kts 91°
2026-05-04 17:49 49.00198 2.33761 2001 ft 135 kts 91°
2026-05-04 17:49 49.00157 2.35189 2003 ft 135 kts 91°
2026-05-04 17:49 49.00116 2.36618 2010 ft 135 kts 91°
2026-05-04 17:49 49.00075 2.38048 2008 ft 135 kts 91°
2026-05-04 17:50 49.00034 2.39476 1998 ft 135 kts 91°
2026-05-04 17:50 48.99994 2.40900 2008 ft 135 kts 91°
2026-05-04 17:50 48.99952 2.42329 2005 ft 135 kts 91°
2026-05-04 17:50 48.99911 2.43754 1999 ft 135 kts 91°
2026-05-04 17:51 48.99869 2.45190 1926 ft 138 kts 91°
2026-05-04 17:51 48.99831 2.46656 1662 ft 138 kts 91°
2026-05-04 17:51 48.99794 2.48102 1432 ft 133 kts 92°
2026-05-04 17:51 48.99720 2.49502 1400 ft 137 kts 98°
2026-05-04 17:52 48.99528 2.50925 1264 ft 136 kts 102°
2026-05-04 17:52 48.99405 2.52373 896 ft 141 kts 90°
2026-05-04 17:52 48.99498 2.53845 632 ft 137 kts 82°
2026-05-04 17:52 48.99562 2.55301 786 ft 153 kts 85°
2026-05-04 17:53 48.99666 2.57140 1445 ft 188 kts 80°
2026-05-04 17:53 49.00095 2.59148 2293 ft 210 kts 63°
2026-05-04 17:53 49.00790 2.61141 2786 ft 220 kts 62°
2026-05-04 17:53 49.01504 2.63295 2992 ft 242 kts 64°
2026-05-04 17:54 49.02219 2.65700 3373 ft 254 kts 66°
2026-05-04 17:54 49.02995 2.68145 3827 ft 259 kts 58°
2026-05-04 17:54 49.04175 2.70210 3985 ft 260 kts 38°
2026-05-04 17:54 49.05804 2.71353 4004 ft 261 kts 11°
2026-05-04 17:55 49.07595 2.71095 4002 ft 263 kts 338°
2026-05-04 17:55 49.09168 2.69658 4000 ft 264 kts 327°
2026-05-04 17:55 49.10679 2.68047 3998 ft 266 kts 324°
2026-05-04 17:55 49.12094 2.66239 4000 ft 266 kts 317°
2026-05-04 17:56 49.13380 2.64274 4004 ft 258 kts 316°
2026-05-04 17:56 49.14713 2.62475 4008 ft 255 kts 322°
2026-05-04 17:56 49.16113 2.60815 4001 ft 255 kts 322°
2026-05-04 17:56 49.17314 2.58822 4000 ft 256 kts 304°
2026-05-04 17:57 49.17930 2.56286 4012 ft 257 kts 277°
2026-05-04 17:57 49.17985 2.53585 4001 ft 247 kts 269°
2026-05-04 17:57 49.17938 2.51019 4003 ft 239 kts 269°
2026-05-04 17:57 49.17887 2.48495 4004 ft 237 kts 269°
2026-05-04 17:58 49.17837 2.45963 4002 ft 239 kts 269°
2026-05-04 17:58 49.17788 2.43428 4002 ft 238 kts 269°
2026-05-04 17:58 49.17737 2.40887 3895 ft 239 kts 269°
2026-05-04 17:58 49.17659 2.38392 3786 ft 230 kts 265°
2026-05-04 17:59 49.17447 2.35941 3548 ft 241 kts 262°
2026-05-04 17:59 49.17186 2.33385 3495 ft 240 kts 262°
2026-05-04 17:59 49.16663 2.28413 3504 ft 236 kts 262°
2026-05-04 18:00 49.16401 2.25935 3506 ft 237 kts 262°
2026-05-04 18:00 49.16119 2.23459 3499 ft 238 kts 258°
2026-05-04 18:00 49.15502 2.21203 3499 ft 224 kts 236°
2026-05-04 18:00 49.14442 2.19551 3508 ft 217 kts 217°
2026-05-04 18:01 49.13146 2.18388 3503 ft 217 kts 201°
2026-05-04 18:01 49.11688 2.17944 3527 ft 213 kts 182°
2026-05-04 18:01 49.10195 2.17836 3497 ft 216 kts 181°
2026-05-04 18:02 49.07184 2.17724 3501 ft 217 kts 178°
2026-05-04 18:02 49.05679 2.17789 3498 ft 216 kts 175°
2026-05-04 18:02 49.04194 2.18024 3462 ft 212 kts 167°
2026-05-04 18:02 49.02810 2.18565 3137 ft 200 kts 162°
2026-05-04 18:03 49.01507 2.19155 3015 ft 193 kts 161°
2026-05-04 18:03 49.00277 2.19948 2994 ft 191 kts 153°
2026-05-04 18:03 48.99215 2.21121 3017 ft 189 kts 129°
2026-05-04 18:03 48.98435 2.22698 2990 ft 183 kts 123°
2026-05-04 18:04 48.98051 2.24330 3017 ft 152 kts 95°
2026-05-04 18:04 48.98018 2.25834 3020 ft 134 kts 86°
2026-05-04 18:04 48.98145 2.28625 2994 ft 134 kts 83°
2026-05-04 18:05 48.98224 2.30061 2995 ft 135 kts 83°
2026-05-04 18:05 48.98299 2.31480 3009 ft 135 kts 84°
2026-05-04 18:05 48.98371 2.32886 2997 ft 135 kts 84°
2026-05-04 18:05 48.98445 2.34330 3028 ft 144 kts 84°
2026-05-04 18:06 48.98623 2.37698 2658 ft 165 kts 84°
2026-05-04 18:06 48.98716 2.39431 2436 ft 164 kts 84°
2026-05-04 18:06 48.98810 2.41163 2199 ft 163 kts 84°
2026-05-04 18:07 48.98900 2.42846 1988 ft 154 kts 84°
2026-05-04 18:07 48.98984 2.44405 1792 ft 142 kts 84°
2026-05-04 18:07 48.99062 2.45852 1606 ft 133 kts 84°
2026-05-04 18:07 48.99137 2.47249 1436 ft 132 kts 85°
2026-05-04 18:08 48.99211 2.48642 1249 ft 132 kts 85°
2026-05-04 18:08 48.99286 2.50040 1061 ft 133 kts 84°
2026-05-04 18:08 48.99361 2.51439 880 ft 133 kts 84°
2026-05-04 18:08 48.99435 2.52837 697 ft 133 kts 84°
2026-05-04 18:09 48.99589 2.55648 368 ft 133 kts 83°
2026-05-04 18:09 48.99688 2.57459 364 ft 23 kts 84°
2026-05-04 18:10 48.99704 2.57743 365 ft 27 kts 85°
2026-05-04 18:10 48.99722 2.58011 362 ft 24 kts 78°
2026-05-04 18:10 48.99780 2.58230 365 ft 22 kts 65°
2026-05-04 18:10 48.99845 2.58449 367 ft 23 kts 66°
2026-05-04 18:11 48.99906 2.58652 368 ft 0 kts 64°
2026-05-04 18:14 48.99916 2.58664 368 ft 2 kts 23°
2026-05-04 18:15 48.99937 2.58591 364 ft 11 kts 270°
2026-05-04 18:15 48.99921 2.58292 363 ft 17 kts 265°
2026-05-04 18:15 48.99911 2.58099 365 ft 19 kts 265°
2026-05-04 18:16 48.99900 2.57886 365 ft 21 kts 265°
2026-05-04 18:16 48.99888 2.57662 363 ft 22 kts 265°
2026-05-04 18:16 48.99880 2.57508 362 ft 22 kts 265°
2026-05-04 18:17 48.99856 2.57045 362 ft 22 kts 265°
2026-05-04 18:17 48.99843 2.56813 367 ft 22 kts 265°
2026-05-04 18:17 48.99901 2.56553 365 ft 10 kts 310°
2026-05-04 18:18 48.99913 2.56463 366 ft 8 kts 269°
2026-05-04 18:18 48.99908 2.56361 362 ft 11 kts 265°
2026-05-04 18:18 48.99900 2.56239 364 ft 12 kts 265°
2026-05-04 18:18 48.99893 2.56116 360 ft 12 kts 265°
2026-05-04 18:19 48.99899 2.55892 362 ft 9 kts 283°
2026-05-04 18:19 48.99914 2.55801 366 ft 9 kts 286°
2026-05-04 18:19 48.99935 2.55721 364 ft 8 kts 303°
2026-05-04 18:20 48.99996 2.55662 365 ft 15 kts 333°
2026-05-04 18:20 49.00106 2.55619 367 ft 17 kts 346°
2026-05-04 18:20 49.00217 2.55572 362 ft 16 kts 344°
2026-05-04 18:20 49.00326 2.55524 364 ft 16 kts 344°
2026-05-04 18:21 49.00435 2.55477 364 ft 16 kts 344°
2026-05-04 18:21 49.00546 2.55428 364 ft 17 kts 344°
2026-05-04 18:21 49.00626 2.55393 365 ft 16 kts 344°
2026-05-04 18:21 49.00734 2.55346 365 ft 17 kts 344°
2026-05-04 18:22 49.00848 2.55296 366 ft 18 kts 344°
2026-05-04 18:22 49.00968 2.55244 367 ft 18 kts 344°
2026-05-04 18:22 49.01095 2.55188 366 ft 19 kts 344°
2026-05-04 18:22 49.01218 2.55112 368 ft 17 kts 309°
2026-05-04 18:23 49.01232 2.54951 361 ft 15 kts 265°
2026-05-04 18:23 49.01225 2.54785 364 ft 16 kts 272°
2026-05-04 18:23 49.01297 2.54711 364 ft 13 kts
2026-05-04 18:23 49.01376 2.54737 362 ft 10 kts 12°
2026-05-04 18:24 49.01404 2.54724 361 ft 3 kts 322°
2026-05-04 18:24 49.01413 2.54696 363 ft 2 kts 278°
2026-05-04 18:24 49.01414 2.54671 364 ft 3 kts 275°
2026-05-04 18:24 49.01416 2.54642 363 ft 0 kts 276°
2026-05-04 18:25 49.01416 2.54639 363 ft 1 kts 275°